Location: Byszew
(52.1813°N, 19.2693°E)
Time: 07:28:43
(UTC+00:00)

NOAA 18 - Pass Details

Date: 07 July 2022
Orbit: 839 x 860 km, 98.9° (Epoch: 15 August)

Event Time Altitude Azimuth Distance (km) Brightness Sun altitude
Exits shadow 21:25:30 - 208° (SSW) 2,874 7.6 -13.2°
Reaches altitude 10° 21:26:44 10° 215° (SW) 2,486 7.3 -13.2°
Maximum altitude 21:31:10 24° 269° (W) 1,694 7.0 -13.4°
Drops below altitude 10° 21:35:39 10° 323° (NW) 2,508 8.9 -13.7°
Sets 21:38:30 0° 337° (NNW) 3,452 10.3 -13.8°
